Погода в Тячеве

Украина / Закарпатская область     48°00′42″N   23°34′19″E
темп.,
°C
ветер,
м/с
пор.,
м/с
влажн.,
%
обл.,
%
осадки,
мм/ч
давл.,
гПа
погр.,
м
13 апреля, вт
вт1300:00+10в227817 0.0 101721
03:00+9в22805 0.0 101724
06:00+8всв2281100 0.0 101722
09:00+12в126788 0.0 1016160
12:00+15з226291 0.0 1015640
15:00+15з3267100 0.4 1014773
18:00+11зюз2291100 1.9 1013251
21:00+8з1199100 12.3 1013139
14 апреля, ср
ср1400:00+6зюз2298100 6.0 1014173
03:00+5зюз2298100 9.2 1013199
06:00+4зюз2397100 2.0 1013274
09:00+3з2298100 2.8 1014482
12:00+2з2399100 1.4 1015242
15:00+2з22100100 4.3 1015154
18:00+2зюз22100100 2.4 1016160
21:00+1з22100100 4.3 1017189
15 апреля, чт
чт1500:00+1з22100100 1.8 1017112
03:00+1з12100100 3.2 1018115
06:00+1зюз22100100 0.8 1018113
09:00+1зюз22100100 1.6 1019119
12:00+2зюз23100100 1.2 1019220
15:00+2юз23100100 2.4 1019273
18:00+2юз2399100 1.1 1019343
21:00+2ююз2299100 1.4 1019124
16 апреля, пт
пт1600:00+2юз2399100 0.3 1019150
03:00+1юз2399100 0.6 1019133
06:000зюз23100100 2.3 1019117
09:00+1зюз23100100 5.0 1019106
12:00+1юз23100100 2.9 1020125
15:00+1юз22100100 3.8 1021169
18:00+1ю11100100 0.3 1021176
21:00+1юв11100100 0.3 1021145
17 апреля, сб
сб1700:00+1вюв11100100 0.0 1021106
03:00+1всв12100100 0.0 1020153
06:00+1в229986 0.0 102081
09:00+2всв1295100 0.0 1020194
12:00+5в228687 0.0 1019626
15:00+8всв2377100 0.1 1017848
18:00+9св2277100 0.0 1015617
21:00+5в229389 0.0 101616